Location: �terpigny
(49.8910°N, 2.9249°E)
Time: 04:39:25
(UTC+00:00)

Cosmos 614 Rocket - Pass Details

Date: 06 June 2022
Orbit: 732 x 764 km, 74.1° (Epoch: 06 July)

Event Time Altitude Azimuth Distance (km) Brightness Sun altitude
Rises 00:46:36 0° 329° (NNW) 3,229 7.9 -16.3°
Reaches altitude 10° 00:49:11 10° 319° (NW) 2,302 6.9 -16.2°
Maximum altitude 00:53:45 32° 259° (WSW) 1,304 5.0 -16.0°
Enters shadow 00:55:49 24° 219° (SW) 1,563 5.1 -15.9°
